| time (UTC) | temp F | wind direction | speed knots | gust knots | rain 1hr in | rain 24hr in | rain mn in | humidity % | barometer mb |
| 20260506134501 | 55 | 313 | 3.5 | 5.2 | 0.00 | 0.71 | 0.70 | 86 | 1004.5 |
| 20260506133001 | 55 | 15 | 2.6 | 6.1 | 0.00 | 0.71 | 0.70 | 87 | 1004.5 |
| 20260506131604 | 55 | 318 | 2.6 | 7.0 | 0.00 | 0.71 | 0.70 | 89 | 1004.5 |
| 20260506124559 | 55 | 349 | 3.5 | 7.8 | 0.00 | 0.71 | 0.70 | 88 | 1004.4 |
| 20260506123058 | 55 | 26 | 2.6 | 8.7 | 0.00 | 0.71 | 0.70 | 89 | 1004.3 |
| 20260506121559 | 55 | 333 | 4.3 | 7.8 | 0.00 | 0.71 | 0.70 | 90 | 1004.4 |
| 20260506120100 | 55 | 336 | 1.7 | 5.2 | 0.00 | 0.71 | 0.70 | 90 | 1004.3 |
| 20260506114605 | 54 | 5 | 1.7 | 4.3 | 0.00 | 0.71 | 0.70 | 90 | 1004.4 |
| 20260506113056 | 54 | 348 | 1.7 | 5.2 | 0.00 | 0.71 | 0.70 | 90 | 1004.3 |
| 20260506111555 | 54 | 344 | 1.7 | 3.5 | 0.00 | 0.71 | 0.70 | 91 | 1004.2 |
| 20260506104554 | 54 | 345 | 2.6 | 7.8 | 0.00 | 0.71 | 0.70 | 91 | 1003.9 |
| 20260506103054 | 54 | 326 | 1.7 | 7.0 | 0.00 | 0.71 | 0.70 | 92 | 1003.8 |
| 20260506101603 | 54 | 22 | 2.6 | 7.0 | 0.00 | 0.71 | 0.70 | 93 | 1003.5 |
| 20260506100052 | 54 | 345 | 3.5 | 7.8 | 0.00 | 0.71 | 0.70 | 94 | 1003.5 |
| 20260506094615 | 54 | 342 | 4.3 | 8.7 | 0.00 | 0.72 | 0.70 | 95 | 1003.3 |
| 20260506093055 | 54 | 15 | 4.3 | 8.7 | 0.00 | 0.72 | 0.70 | 96 | 1003.1 |
| 20260506091551 | 54 | 347 | 5.2 | 9.6 | 0.00 | 0.72 | 0.70 | 96 | 1002.9 |
| 20260506090050 | 53 | 5 | 3.5 | 9.6 | 0.00 | 0.72 | 0.70 | 97 | 1002.8 |
| 20260506084549 | 53 | 336 | 4.3 | 10.4 | 0.00 | 0.72 | 0.70 | 97 | 1002.6 |
| 20260506083047 | 53 | 323 | 3.5 | 8.7 | 0.00 | 0.72 | 0.70 | 97 | 1002.6 |
| 20260506081545 | 53 | 360 | 3.5 | 5.2 | 0.00 | 0.72 | 0.70 | 97 | 1002.6 |
| 20260506073045 | 52 | 348 | 4.3 | 7.0 | 0.02 | 0.72 | 0.70 | 97 | 1002.2 |
| 20260506071540 | 52 | 344 | 2.6 | 7.0 | 0.02 | 0.72 | 0.70 | 97 | 1002.1 |
| 20260506061537 | 52 | 9 | 4.3 | 7.8 | 0.03 | 0.70 | 0.68 | 97 | 1001.9 |
| 20260506044538 | 53 | 355 | 2.6 | 7.0 | 0.12 | 0.62 | 0.60 | 96 | 1001.8 |
| 20260506043027 | 53 | 326 | 2.6 | 7.8 | 0.11 | 0.59 | 0.56 | 96 | 1001.8 |
| 20260506041526 | 52 | 344 | 2.6 | 9.6 | 0.10 | 0.56 | 0.54 | 96 | 1002.0 |
| 20260506040046 | 53 | 15 | 3.5 | 7.8 | 0.07 | 0.53 | 0.51 | 96 | 1002.1 |
| 20260506034520 | 53 | 40 | 3.5 | 7.0 | 0.06 | 0.50 | 0.48 | 96 | 1002.2 |
| 20260506033017 | 53 | 5 | 3.5 | 7.8 | 0.05 | 0.48 | 0.46 | 96 | 1002.3 |
| 20260506031530 | 53 | 44 | 2.6 | 8.7 | 0.04 | 0.46 | 0.44 | 96 | 1002.5 |
| 20260506030013 | 53 | 24 | 1.7 | 8.7 | 0.07 | 0.46 | 0.44 | 96 | 1002.6 |
| 20260506024517 | 53 | 360 | 1.7 | 8.7 | 0.07 | 0.44 | 0.42 | 96 | 1002.8 |
| 20260506023010 | 53 | 9 | 1.7 | 5.2 | 0.07 | 0.43 | 0.41 | 96 | 1002.9 |
| 20260506021509 | 53 | 26 | 2.6 | 5.2 | 0.08 | 0.42 | 0.40 | 96 | 1003.1 |
| 20260506020005 | 53 | 54 | 3.5 | 5.2 | 0.07 | 0.39 | 0.37 | 96 | 1003.2 |
| 20260506014506 | 53 | 55 | 2.6 | 8.7 | 0.09 | 0.37 | 0.35 | 95 | 1003.4 |
| 20260506013003 | 53 | 5 | 1.7 | 7.8 | 0.09 | 0.35 | 0.33 | 95 | 1003.4 |
| 20260506011502 | 53 | 58 | 2.6 | 7.8 | 0.14 | 0.34 | 0.32 | 95 | 1003.4 |
| 20260506010000 | 54 | 10 | 2.6 | 7.8 | 0.16 | 0.32 | 0.30 | 95 | 1003.3 |
| 20260506004600 | 54 | 360 | 2.6 | 5.2 | 0.16 | 0.28 | 0.26 | 95 | 1003.4 |
| 20260506003056 | 54 | 51 | 3.5 | 7.8 | 0.17 | 0.26 | 0.24 | 94 | 1003.8 |
| 20260506001554 | 54 | 48 | 4.3 | 8.7 | 0.13 | 0.20 | 0.18 | 94 | 1003.9 |
| 20260506000050 | 54 | 67 | 2.6 | 7.0 | 0.10 | 0.16 | 0.14 | 94 | 1004.1 |
| 20260505234556 | 54 | 9 | 3.5 | 7.8 | 0.06 | 0.12 | 0.10 | 94 | 1004.4 |
| 20260505233048 | 55 | 48 | 2.6 | 6.1 | 0.04 | 0.09 | 0.07 | 93 | 1004.5 |
| 20260505231550 | 55 | 53 | 3.5 | 6.1 | 0.04 | 0.07 | 0.05 | 93 | 1004.7 |
| 20260505230040 | 55 | 56 | 2.6 | 4.3 | 0.04 | 0.06 | 0.04 | 93 | 1004.7 |
| 20260505224539 | 55 | 47 | 1.7 | 4.3 | 0.04 | 0.06 | 0.04 | 92 | 1004.8 |
| 20260505223048 | 56 | 55 | 2.6 | 7.8 | 0.03 | 0.05 | 0.03 | 91 | 1004.9 |
| 20260505221536 | 56 | 49 | 1.7 | 7.8 | 0.01 | 0.03 | 0.01 | 90 | 1004.9 |
| 20260505220039 | 57 | 57 | 1.7 | 7.8 | 0.00 | 0.02 | 0.00 | 88 | 1004.8 |
| 20260505214536 | 57 | 28 | 3.5 | 7.8 | 0.00 | 0.02 | 0.02 | 87 | 1004.8 |
| 20260505213030 | 58 | 43 | 4.3 | 11.3 | 0.00 | 0.02 | 0.02 | 87 | 1004.7 |
| 20260505211528 | 58 | 51 | 3.5 | 10.4 | 0.00 | 0.02 | 0.02 | 86 | 1004.7 |
| 20260505210029 | 59 | 42 | 2.6 | 7.8 | 0.00 | 0.02 | 0.02 | 86 | 1004.7 |
| 20260505204533 | 59 | 55 | 2.6 | 7.8 | 0.00 | 0.02 | 0.02 | 86 | 1004.7 |
| 20260505203031 | 59 | 51 | 5.2 | 8.7 | 0.00 | 0.02 | 0.02 | 86 | 1004.7 |
| 20260505201525 | 59 | 43 | 2.6 | 4.3 | 0.00 | 0.02 | 0.02 | 85 | 1004.8 |
| 20260505200036 | 60 | 59 | 1.7 | 3.5 | 0.01 | 0.02 | 0.02 | 85 | 1004.8 |
| 20260505194631 | 60 | 80 | 2.6 | 4.3 | 0.01 | 0.02 | 0.02 | 84 | 1004.8 |
| 20260505193023 | 60 | 71 | 1.7 | 5.2 | 0.01 | 0.02 | 0.02 | 84 | 1004.7 |
| 20260505191523 | 61 | 67 | 2.6 | 6.1 | 0.01 | 0.02 | 0.02 | 83 | 1004.8 |
| 20260505190024 | 61 | 5 | 2.6 | 6.1 | 0.00 | 0.01 | 0.01 | 82 | 1004.7 |
| 20260505184624 | 61 | 36 | 2.6 | 5.2 | 0.00 | 0.01 | 0.01 | 81 | 1004.7 |
| 20260505183020 | 62 | 44 | 3.5 | 7.8 | 0.00 | 0.01 | 0.01 | 80 | 1004.7 |
| 20260505181520 | 63 | 39 | 2.6 | 6.1 | 0.00 | 0.01 | 0.01 | 80 | 1004.7 |
| 20260505180019 | 63 | 44 | 4.3 | 10.4 | 0.00 | 0.01 | 0.01 | 78 | 1004.6 |
| 20260505174520 | 64 | 30 | 4.3 | 10.4 | 0.00 | 0.01 | 0.01 | 76 | 1004.5 |
| 20260505173017 | 65 | 5 | 3.5 | 7.8 | 0.00 | 0.01 | 0.01 | 73 | 1004.6 |
| 20260505171521 | 65 | 16 | 2.6 | 4.3 | 0.00 | 0.01 | 0.01 | 70 | 1004.5 |
| 20260505170018 | 65 | 11 | 1.7 | 4.3 | 0.00 | 0.01 | 0.01 | 70 | 1004.7 |
| 20260505164514 | 65 | 63 | 1.7 | 5.2 | 0.00 | 0.01 | 0.01 | 69 | 1004.8 |
| 20260505163012 | 66 | 5 | 3.5 | 7.0 | 0.00 | 0.01 | 0.01 | 69 | 1004.8 |
| 20260505161510 | 66 | 9 | 1.7 | 3.5 | 0.00 | 0.01 | 0.01 | 71 | 1005.0 |
| 20260505153006 | 66 | 48 | 0.9 | 4.3 | 0.00 | 0.01 | 0.01 | 72 | 1005.4 |
| 20260505151505 | 65 | 45 | 1.7 | 4.3 | 0.00 | 0.01 | 0.01 | 72 | 1005.4 |